CST,Max TemperatureF,Mean TemperatureF,Min TemperatureF,Max Dew PointF,MeanDew PointF,Min DewpointF,Max Humidity, Mean Humidity, Min Humidity, Max Sea Level PressureIn, Mean Sea Level PressureIn, Min Sea Level PressureIn, Max VisibilityMiles, Mean VisibilityMiles, Min VisibilityMiles, Max Wind SpeedMPH, Mean Wind SpeedMPH, Max Gust SpeedMPH,PrecipitationIn, CloudCover, Events, WindDirDegrees
2012-2-1,48,36,24,37,31,25,100,87,58,30.08,30.04,29.99,10,7,1,9,3,,0.00,1,,221
2012-2-2,46,34,21,34,29,21,100,85,53,30.28,30.21,30.11,10,10,10,8,2,,0.00,1,,130
2012-2-3,30,29,28,30,28,28,100,100,100,30.42,30.38,30.32,2,0,0,14,9,17,0.00,8,Snow,45
2012-2-4,33,28,24,30,27,25,100,98,81,30.39,30.36,30.33,10,4,0,17,11,21,0.00,6,Fog-Snow,346
2012-2-5,33,28,24,28,26,25,100,97,81,30.35,30.32,30.25,10,3,0,14,8,,0.00,7,Fog,281
2012-2-6,48,34,21,34,26,19,100,85,46,30.19,30.11,30.04,10,8,1,20,8,24,0.00,2,,252
2012-2-7,26,19,10,25,18,9,93,80,63,30.48,30.41,30.26,10,10,10,18,15,25,0.00,6,,357
2012-2-8,30,16,3,10,4,-2,92,66,29,30.48,30.38,30.26,10,10,10,9,6,,0.00,0,,260
2012-2-9,39,24,10,27,19,10,100,81,52,30.23,30.03,29.90,10,10,10,21,12,28,0.00,0,,216
2012-2-10,12,5,-2,1,-6,-9,78,63,44,30.41,30.23,30.05,10,10,10,31,25,38,0.00,0,,329
2012-2-11,21,8,-4,-6,-10,-11,78,52,26,30.63,30.57,30.51,10,10,10,21,15,29,0.00,0,,298
2012-2-12,30,15,0,3,-3,-8,78,54,27,30.48,30.33,30.11,10,10,10,20,8,23,0.00,0,,219
2012-2-13,26,22,19,25,18,7,100,81,54,30.00,29.82,29.70,10,6,1,16,8,20,0.00,8,Snow,170
2012-2-14,32,28,24,28,26,21,93,86,80,29.75,29.68,29.64,10,7,0,15,5,17,0.00,6,Fog,201
2012-2-15,37,24,12,34,24,12,100,90,70,29.95,29.88,29.80,10,7,4,9,2,,0.00,5,,4
2012-2-16,39,29,19,27,21,18,100,77,42,30.14,30.08,30.05,10,10,3,20,9,24,0.00,1,,258
2012-2-17,37,27,17,25,20,16,100,77,51,30.15,30.03,29.92,10,10,10,21,10,28,0.00,2,,279
2012-2-18,37,22,8,23,16,7,100,77,52,30.24,30.17,30.11,10,10,10,9,4,,0.00,0,,232
2012-2-19,39,27,15,27,21,16,100,78,56,30.10,30.03,29.96,10,10,10,20,7,24,0.00,0,,168
2012-2-20,35,32,28,32,26,21,100,80,60,29.98,29.84,29.65,10,8,1,24,15,33,0.27,6,Rain-Snow,143
2012-2-21,33,32,30,34,28,25,100,88,70,29.64,29.60,29.55,10,9,2,28,15,34,0.00,4,,261
2012-2-22,39,32,24,32,28,23,100,88,70,29.56,29.44,29.38,10,10,10,16,2,,0.00,5,,264
2012-2-23,30,27,24,30,28,25,100,97,93,29.62,29.46,29.38,10,7,1,23,5,25,0.00,7,Snow,9
2012-2-24,28,24,17,28,18,14,100,82,64,30.05,29.87,29.72,10,9,1,28,18,32,0.00,6,Snow,303
2012-2-25,24,15,6,18,11,3,92,80,63,30.21,30.12,29.96,10,10,10,18,12,24,0.00,1,Snow,254
2012-2-26,33,27,19,28,21,18,93,82,74,29.99,29.73,29.53,10,10,5,33,23,45,0.00,5,,220
2012-2-27,28,19,10,19,14,9,92,80,69,30.43,30.32,30.11,10,10,10,25,15,30,0.00,3,Snow,279
2012-2-28,30,28,26,30,27,21,100,93,80,30.26,30.02,29.72,10,6,1,16,11,26,0.66,8,Snow,132
2012-2-29,32,31,30,32,31,30,100,100,100,29.57,29.27,29.12,2,1,0,8,4,,0.25,8,Fog-Snow-Thunderstorm,359